www.pogodaiklimat.ru

Погода и климат >> Архив погоды >> Россия >> Хабаровский край >> Байдуков


ПОГОДА в Байдукове

  • Прогноз погоды в Байдукове
  • Монитор погоды в Байдукове
  • Климат города

АРХИВ ПОГОДЫ в Байдукове

Время (UTC), дата Ветер
(напр.,м/с)
 
Видим.   Явления Облачность Т
(С)
Тd
(С)
f
(%)
Тe
(С)
Тes
(С)
Комфортность P
(гПа)
Po
(гПа)
Тmin
(С)
Tmax
(С)
R
(мм)
R24
(мм)
S
(см)
09 19.06 С 4 20 км 10 баллов +9.6 +5.4 75 +7 +7 1015.3 1014.7 +11.6
15 19.06 СВ 3 20 км 10/10 600 м
[Sc]
+9.4 +5.1 74 +7 +7 1014.3 1013.3
21 19.06 В 3 50 км 10 баллов +9.6 +6.0 78 +7 +7 1015.3 1014.7 +8.9
03 20.06 штиль 0 50 км 10/10 600 м
[Sc]
+10.9 +6.9 76 +10 +10 1013.9 1013.0
09 20.06 ЮВ 4 50 км ясно +14.3 +8.9 70 +13 +14 1011.3 1010.7 +14.7
15 20.06 Ю 7 50 км ясно +12.5 +10.2 86 +10 +10 1009.8 1008.8
21 20.06 Ю 8-10
{10}
50 км ясно +14.2 +10.9 81 +12 +12 1008.0 1007.1 +12.5
03 21.06 Ю 10 50 км 2 балла +17.6 +12.5 72 +16 +17 1005.9 1005.3
09 21.06 Ю 13-17
{18}
н/о 8/0
[Ci fib]
+16.4 +12.6 78 +14 +14 1001.4 1000.5 +17.8
15 21.06 Ю 10-12
{17}
н/о н/о +14.7 +12.5 87 +12 +12 1000.8 999.8
21 21.06 СЗ 8-11
{11}
50 км 1/0
[Ac cast]
+12.8 +10.2 84 +10 +10 1003.5 1002.6 +12.0
03 22.06 С 6 50 км 3/1 600 м
[Cu med, cong Ci fib]
+15.0 +9.8 71 +13 +19 1005.3 1004.4
09 22.06 СВ 3 50 км 8/1 600 м
[Cb calv Ac cast Ci sp]
+16.3 +13.0 81 +16 +17 1004.6 1003.7
15 22.06 ЮЗ 3 50 км 10/0
[Ac lent Ci sp]
+15.1 +10.7 75 +14 +14 1003.4 1002.4
21 22.06 С 8-10
{10}
50 км 10/3 600 м
[Sc Ac trans]
+11.9 +8.7 81 +9 +9 1004.6 1003.7 +11.9
03 23.06 СЗ 10 20 км 10 баллов +10.3 +6.1 75 +6 +6 1007.3 1006.7
09 23.06 СЗ 11-14
{16}
10 км слабая морось 10/10 300 м
[St]
+7.8 +6.5 91 +2 +2 1006.4 1005.4 +11.9
15 23.06 СЗ 9-12
{15}
н/о н/о +8.0 +6.6 91 +3 +3 1006.3 1005.3
21 23.06 С 2 4000 м слабая морось {дождь} 10/10 300 м
[St]
+8.7 +7.5 92 +7 +7 1008.0 1007.0 +7.4 8
03 24.06 С 3 50 км 10/10 600 м
[Sc]
+12.0 +7.5 74 +10 +10 1011.0 1010.0
09 24.06 СВ 6 50 км 10 баллов +12.2 +9.2 82 +10 +10 1013.9 1013.3 +13.3 0.4
15 24.06 ЮВ 5 20 км 10/10 600 м
[Sc]
+10.4 +7.5 82 +7 +7 1014.4 1013.5
21 24.06 ЮВ 2 20 км 10 баллов +10.0 +7.1 82 +9 +9 1015.3 1014.7 +9.4
03 25.06 Ю 5 50 км 1/1 600 м
[Cu hum]
+13.1 +8.1 72 +11 +19 1012.5 1011.5
09 25.06 Ю 6 50 км 2 балла +17.3 +8.7 57 +17 +17 1009.9 1009.3 +17.4
15 25.06 Ю 9-11
{13}
50 км ясно +12.5 +9.3 81 +9 +9 1009.7 1008.8
21 25.06 Ю 7
{11}
20 км 6/0
[Ci fib]
+12.3 +8.0 75 +9 +10 1010.4 1009.5 +11.2
03 26.06 Ю 4 50 км 3/1 600 м
[Cu hum Cc]
+16.4 +8.5 60 +16 +25 1010.3 1009.4

 

Местоположение метеостанции Байдуков (Хабаровский край, Россия): широта 53.30 долгота 141.40 высота над уровнем моря 5 м.

В архиве по умолчанию представлена погода в Байдукове за последнюю неделю. Архивные данные за месяц целиком и за предыдущие месяцы, начиная с января 2011 года, Вы можете получить, выбрав интересующий диапазон дат из раскрывающегося списка и нажав кнопку "Ввод!".

Внимание! Время в таблицах - всемирное. Для получения местного времени необходимо прибавить поправку, которая в Байдукове равна 10 ч.

Смотрите также архив погоды в соседних городах и на ближайших метеорологических станциях:

Погода в Николаевск-на-Амуре (Хабаровский край, Россия) (50 км)
Погода в Джаоре (Хабаровский край, Россия) (71 км)
Погода в Москальво (Сахалинская область, Россия) (79 км)
Погода в Оха (Сахалинская область, Россия) (102 км)
Погода в Литке (Хабаровский край, Россия) (102 км)
Погода в Одопту (Сахалинская область, Россия) (120 км)
Погода в Погибях (Сахалинская область, Россия) (121 км)
Погода в Богородском (Хабаровский край, Россия) (122 км)
Погода в Ныврово (Сахалинская область, Россия) (139 км)
Погода в Вал (Сахалинская область, Россия) (152 км)

Пояснения к столбцам:

Ветер - указаны скорость ветра в м/с - средняя за 10 мин, порывы в срок и между сроками (в фигурных скобках) и направление, откуда дует ветер: С - северный, СВ - северо-восточный, В - восточный, ЮВ - юго-восточный, Ю - южный, ЮЗ - юго-западный, З - западный, СЗ - северо-западный.
Видимость - горизонтальная дальность видимости в метрах или километрах. При видимости от 1 до 10 км при отсутствии осадков обычно наблюдается дымка, при ухудшении видимости до 1 км и менее - туман. В сухую погоду видимость может ухудшаться дымом, пылью или мглою.
Явления - указаны атмосферные явления, наблюдавшиеся в срок или в последний час перед сроком; фигурными скобками обозначены явления, наблюдавшиеся между сроками (за 1-3 часа до срока); квадратными скобками обозначены град или гололедные отложения с указанием их диаметра в мм.
Облачность - указаны через наклонную черту общая и нижняя облачность в баллах и высота нижней границы облаков в метрах; квадратными скобками обозначены формы облаков: Ci - перистые, Cs - перисто-слоистые, Cc - перисто-кучевые, Ac - высококучевые, As - высокослоистые, Sc - слоисто-кучевые, Ns - слоисто-дождевые, Cu - кучевые, Cb - кучево-дождевые. Подробнее классификацию облаков см. в Атласе облаков (PDF).
T - Температура воздуха - температура, измеренная на высоте 2 м над землей.
Td - Температура точки росы - температура, при понижении до которой содержащийся в воздухе водяной пар достигнет насыщения.
f - Относительная влажность воздуха - влажноcть воздуха, измеренная на высоте 2 м над землей.
Te - Эффективная температура - температура, которую ощущает одетый по сезону человек в тени. Характеристика душности погоды. При расчете учитывается влияние влажности воздуха и скорости ветра на теплоощущения человека.
Tes - Эффективная температура на солнце - температура, которую ощущает человек, с поправкой на солнечный нагрев. Характеристика знойности погоды. Зависит от высоты солнца над горизонтом, облачности и скорости ветра. Ночью, в пасмурную погоду, а также при ветре 12 м/с и более поправка равна нулю.
P - Атмосферное давление - приведенное к уровню моря атмосферное давление.
Po - Атмосферное давление - измеренное на уровне метеостанции атмосферное давление.
Tmin - Минимальная температура - минимум температуры воздуха на высоте 2 м над землей.
Tmax - Максимальная температура - максимум температуры воздуха на высоте 2 м над землей.
R - Количество осадков - Количество выпавших осадков за период времени, мм. При наведении курсора мыши на число - период времени, за который выпало указанное количество осадков.
R24 - Количество осадков - Количество выпавших осадков за 24 часа, мм.
S - Снежный покров - Высота снежного покрова, см. При наведении курсора мыши на число - состояние снежного покрова и степень покрытия местности в баллах.